FW9176 Weather Reports


time (UTC)temp
C
wind
direction
speed
KPH
gust
KPH
rain 1hr
cm
rain 24hr
cm
rain mn
cm
humidity
%
barometer
mb
20260831130109 22 0 0.0 0.0 0.03 0.30 0.03 79 1013.9
20260831124604 22 0 0.0 1.6 0.03 0.46 0.03 78 1013.5
20260831123105 22 0 0.0 0.0 0.03 0.46 0.03 76 1013.3
20260831121630 23 0 0.0 1.6 0.00 0.43 0.00 72 1012.8
20260831120104 23 0 0.0 4.8 0.00 0.43 0.00 71 1012.2
20260831114604 23 0 0.0 4.8 0.00 0.48 0.00 69 1012.0
20260831113110 23 160 0.0 4.8 0.00 0.48 0.00 68 1012.0
20260831111604 23 156 0.0 4.8 0.00 0.48 0.00 68 1011.7
20260831110100 23 162 0.0 3.2 0.00 0.48 0.00 69 1011.5
20260831104605 23 160 0.0 9.7 0.00 0.48 0.00 69 1011.7
20260831103110 23 199 1.6 6.4 0.00 0.48 0.00 70 1011.6
20260831101605 23 0 0.0 6.4 0.00 0.48 0.00 71 1011.7
20260831100105 23 167 0.0 6.4 0.00 0.48 0.00 71 1011.5
20260831094607 23 170 1.6 6.4 0.00 0.48 0.00 72 1011.5
20260831093152 23 170 0.0 6.4 0.00 0.48 0.00 72 1011.6
20260831091601 23 150 1.6 8.0 0.00 0.48 0.00 73 1011.8
20260831090101 23 153 0.0 6.4 0.00 0.48 0.00 74 1011.8
20260831084651 23 172 0.0 3.2 0.00 0.48 0.00 74 1012.0
20260831083110 23 153 0.0 6.4 0.00 0.48 0.00 74 1011.8
20260831081602 23 157 0.0 4.8 0.00 0.48 0.00 73 1011.8
20260831080123 23 0 1.6 4.8 0.00 0.48 0.00 72 1011.8
20260831074603 23 159 1.6 6.4 0.00 0.48 0.00 72 1011.9
20260831073108 23 146 1.6 4.8 0.00 0.48 0.00 73 1011.7
20260831071611 23 143 0.0 3.2 0.00 0.48 0.00 76 1011.9
20260831070116 23 0 0.0 0.0 0.00 0.48 0.00 79 1012.0
20260831064607 23 0 0.0 0.0 0.00 0.48 0.00 80 1012.1
20260831063113 23 0 0.0 0.0 0.00 0.48 0.00 80 1012.0
20260831061600 23 0 0.0 0.0 0.00 0.48 0.00 79 1012.2
20260831060120 23 0 0.0 0.0 0.00 0.48 0.00 79 1012.1
20260831054604 23 0 0.0 0.0 0.00 0.48 0.00 79 1011.9
20260831053105 23 0 0.0 0.0 0.00 0.48 0.00 79 1012.1
20260831051559 23 0 0.0 0.0 0.00 0.48 0.00 79 1012.2
20260831050114 23 0 0.0 6.4 0.00 0.48 0.00 79 1012.0
20260831044601 23 145 1.6 9.7 0.00 0.48 0.48 81 1011.9
20260831043101 23 224 1.6 8.0 0.00 0.48 0.48 81 1011.9
20260831041606 23 157 1.6 6.4 0.03 0.48 0.48 81 1011.9
20260831040107 23 0 3.2 9.7 0.05 0.48 0.48 84 1012.0
20260831034613 23 188 1.6 8.0 0.05 0.48 0.48 85 1012.3
20260831033106 23 174 0.0 8.0 0.05 0.48 0.48 86 1012.9
20260831031605 23 0 0.0 4.8 0.03 0.46 0.46 85 1013.6
20260831030128 23 152 1.6 8.0 0.00 0.43 0.43 86 1013.4
20260831024605 23 0 0.0 0.0 0.00 0.43 0.43 86 1013.4
20260831023123 23 0 0.0 3.2 0.00 0.43 0.43 87 1013.5
20260831021606 23 171 0.0 3.2 0.00 0.43 0.43 88 1013.3
20260831020105 22 0 0.0 0.0 0.00 0.43 0.43 88 1013.4
20260831014626 23 0 0.0 0.0 0.00 0.43 0.43 88 1013.3
20260831013104 23 0 0.0 1.6 0.00 0.43 0.43 88 1013.3
20260831011609 23 0 0.0 1.6 0.00 0.43 0.43 87 1013.0
20260831010109 23 0 0.0 1.6 0.00 0.43 0.43 87 1012.8
20260831004604 23 0 0.0 4.8 0.03 0.43 0.43 87 1012.5
20260831003101 23 160 0.0 3.2 0.03 0.43 0.43 87 1012.6
20260831001630 23 0 0.0 1.6 0.05 0.43 0.43 87 1013.0
20260831000105 23 0 0.0 1.6 0.05 0.43 0.43 86 1013.3
20260830234603 23 0 0.0 0.0 0.03 0.41 0.41 86 1013.6
20260830233116 23 0 0.0 1.6 0.03 0.41 0.41 86 1013.4
20260830231609 23 0 0.0 1.6 0.00 0.38 0.38 85 1013.7
20260830230120 23 0 0.0 0.0 0.03 0.38 0.38 85 1014.1
20260830224606 23 0 0.0 0.0 0.03 0.38 0.38 85 1014.2
20260830223103 23 0 0.0 0.0 0.03 0.38 0.38 84 1013.8
20260830221604 23 0 0.0 0.0 0.03 0.38 0.38 84 1013.8
20260830220107 23 0 0.0 0.0 0.00 0.36 0.36 83 1013.7
20260830214559 23 160 0.0 3.2 0.00 0.36 0.36 83 1014.0
20260830213105 23 0 0.0 4.8 0.03 0.36 0.36 82 1013.9
20260830211601 23 158 0.0 4.8 0.08 0.36 0.36 83 1014.2
20260830210106 23 167 0.0 4.8 0.10 0.36 0.36 82 1014.2
20260830204605 23 143 0.0 6.4 0.10 0.36 0.36 81 1014.0
20260830203103 23 158 1.6 9.7 0.08 0.33 0.33 78 1014.2
20260830201600 24 205 1.6 6.4 0.03 0.28 0.28 76 1014.2
20260830200057 24 0 0.0 0.0 0.00 0.25 0.25 73 1014.3
20260830194611 25 0 0.0 3.2 0.00 0.25 0.25 71 1014.2
20260830193102 26 290 0.0 3.2 0.00 0.25 0.25 68 1014.3
20260830191607 26 0 0.0 4.8 0.00 0.25 0.25 66 1013.9
20260830190106 26 0 0.0 8.0 0.00 0.25 0.25 64 1013.7
20260830184600 27 189 0.0 6.4 0.00 0.25 0.25 62 1013.4
20260830183106 27 0 0.0 14.5 0.00 0.25 0.25 63 1012.8
20260830181602 27 138 3.2 11.3 0.00 0.25 0.25 62 1012.8
20260830180106 27 107 1.6 12.9 0.00 0.25 0.25 61 1012.8
20260830174615 27 143 3.2 14.5 0.00 0.25 0.25 62 1013.0
20260830173103 26 184 1.6 16.1 0.00 0.25 0.25 63 1013.4
20260830171607 25 0 0.0 14.5 0.00 0.25 0.25 66 1013.5
20260830164601 25 160 3.2 12.9 0.00 0.25 0.25 65 1013.3
20260830163109 25 135 4.8 17.7 0.00 0.25 0.25 68 1013.3
20260830161606 24 205 3.2 16.1 0.00 0.25 0.25 71 1013.4
20260830160115 23 0 3.2 17.7 0.00 0.25 0.25 74 1013.4
20260830154601 22 188 3.2 12.9 0.00 0.25 0.25 76 1013.3
20260830153108 22 143 1.6 12.9 0.00 0.25 0.25 80 1013.2
20260830151604 21 133 1.6 17.7 0.00 0.25 0.25 81 1013.1
20260830150111 21 139 1.6 9.7 0.00 0.25 0.25 85 1013.3
20260830144606 20 75 1.6 8.0 0.00 0.25 0.25 85 1013.3
20260830143107 20 148 1.6 11.3 0.03 0.25 0.25 86 1013.6
20260830141606 20 186 1.6 8.0 0.03 0.25 0.25 87 1013.4
20260830140107 20 178 1.6 8.0 0.05 0.25 0.25 87 1013.7
20260830134607 19 0 3.2 11.3 0.10 0.25 0.25 87 1013.8
20260830133059 19 183 1.6 8.0 0.10 0.23 0.23 87 1014.4
20260830131607 19 0 1.6 8.0 0.15 0.23 0.23 87 1014.1